Location: Oracle State Park
(32.6095°N, 110.7330°W)
Time: 23:50:28
(UTC-07:00)

YUBILEINY - Visible Passes

Search period start: 24 May 2019 00:00
Search period end: 03 June 2019 00:00
Orbit: 1478 x 1508 km, 82.5° (Epoch: 24 May)

Date Brightness Start Highest point End Pass type
(mag) Time Alt. Az. Time Alt. Az. Time Alt. Az.
24 May ? 04:33:37 10° NE 04:37:45 14° ENE 04:41:50 10° E visible
24 May ? 21:27:49 10° WNW 21:28:39 10° WNW 21:29:29 10° WNW visible
25 May ? 20:31:31 10° WSW 20:38:09 23° WNW 20:44:50 10° NNW visible
26 May ? 04:49:17 10° NNE 04:55:59 24° ENE 05:02:37 10° ESE visible
26 May ? 19:39:47 10° SSW 19:48:06 46° WNW 19:56:28 10° N visible
27 May ? 04:03:56 10° NE 04:05:31 11° ENE 04:07:05 10° ENE visible
27 May ? 20:52:30 10° W 20:56:25 13° WNW 21:00:21 10° NW visible
28 May ? 19:58:46 10° SW 20:06:04 29° WNW 20:13:24 10° NNW visible
29 May ? 04:18:00 10° NNE 04:23:51 19° ENE 04:29:39 10° ESE visible
30 May ? 20:18:54 10° WSW 20:24:13 17° WNW 20:29:34 10° NNW visible
31 May ? 04:34:25 10° NNE 04:41:57 32° ENE 04:49:25 10° SE visible
01 Jun ? 03:46:59 10° NE 03:51:40 15° ENE 03:56:20 10° E visible
02 Jun ? 19:45:47 10° WSW 19:52:05 21° WNW 19:58:24 10° NNW visible
